NOAA 16 DEB, 41077

Orbit data source: Space-Track

NOAA 16 DEB, 41077 is space debris in SSO originally from a launch on Thu, 21 Sep 2000 UTC launched from the Air Force Western Test Range (AFWTR). Debris objects in space refer to the collection of defunct objects orbiting the Earth. Examples of debris include non-operational satellites, rocket bodies, and fragments generated from explosions, collisions, or faulty payload assembly.

Loading next visibility...
Identifier
41077, 2000-055AL
Orbit
SSO
Country
Flag of USUS
Related business
Manufacturer
Unknown
Mission
Spacecraft
Bus & Motor
Unknown
Mass
Unknown
Launch date (UTC)
2000-09-21 (25 years ago)
Launch vehicle
Unknown
Launch site
Air Force Western Test Range (AFWTR)
Object type
Payload
Rocket body
Debris
Shape & HBR
Unknown
Radar Cross Section
Small (<0.1 m²)

Expand to show TLE details & history
Last TLE update: 19 hours ago

TLE from 19 hours ago
0 NOAA 16 DEB
1 41077U 00055AL  25260.26971695  .00000546  00000-0  42520-3 0  9990
2 41077  98.8222 279.5820 0112828 216.3816 142.9639 13.93549751498220
Epoch: 2025-09-17T06:28Z
TLE epoch observation values (Epoch: 2025-09-17T06:28:23.544Z)
Latitude
-0.00002°
Longitude
-173.96418°
Altitude
985.134 km
Speed
7.326 km/s
True Right ascension
18h 38m 19s
True Declination
0° 00' 00"
Sunlit
Object was in daylight at epoch
Visualization orbit readout
Latitude
Unknown
Longitude
Unknown
Altitude
Unknown
Speed
Unknown
Apparent Right ascension
Unknown
Apparent Declination
Unknown
Sunlit
N/A
Visualization observer readout
Local Sidereal Time
18:04:51
Azimuth
Unknown
Elevation
Unknown
Doppler factor
Unknown
Orbital elements
Apogee altitude
995.685 km
Perigee altitude
831.147 km
Semi-major axis
7,291.553 km
Eccentricity
0.01128
Inclination
98.8222°
RAAN
279.582°
Arg. of periapsis
216.3816°
True anomaly
143.73395°
Mean anomaly
142.9639°
Eccentric anomaly
143.34979°
Mean motion
3.48589 °/min
Orbital period
103.27 mins
BSTAR
0.0004252
Loading maneuver chart data...
Computing Atmospheric mass density...
Loading historical data...
Loading historical data...
Loading historical data...
Loading historical data...
Loading historical data...
Loading historical data...
Loading historical data...

Documentation

Showing up to 5 results
|